Regional Weather Roundup
Issued by NWS

Home | Current Version | Previous Version | Graphics & Text | Print | Product List | Glossary On
Versions: 1 2 3 4 5 6 7 8 9 10 11 12 13 14 15 16 17 18 19 20 21 22 23 24 25 26 27 28 29 30 31 32 33 34 35 36 37 38 39 40 41 42 43 44 45 46 47 48 49 50
000
ASUS45 KBOU 231407
RWRCO

WEATHER ROUNDUP FOR COLORADO
NATIONAL WEATHER SERVICE DENVER/BOULDER CO
700 AM MST MON JAN 23 2017

NOTE: "FAIR" INDICATES FEW OR NO CLOUDS BELOW 12000 FEET WITH NO
SIGNIFICANT WEATHER AND/OR OBSTRUCTIONS TO VISIBILITY.

COZ001>005-013-030-031-231500-
...NORTHWEST COLORADO...

CITY           SKY/WX    TMP DP  RH WIND       PRES   REMARKS
CRAIG          CLOUDY    31  25  78 W10       29.66S WCI  22
HAYDEN         CLOUDY    25  19  80 E6        29.66S WCI  18
MEEKER         CLOUDY    33  25  72 NW8       29.65F WCI  26
MOUNT WERNER   NOT AVBL
STEAMBOAT SPGS CLOUDY    22  20  93 CALM      29.66F
WALDEN           N/A     23  19  86 S10       29.65S WCI  12
$$

COZ006>008-011-231500-
...WEST CENTRAL VALLEYS...

CITY           SKY/WX    TMP DP  RH WIND       PRES   REMARKS
GRAND JUNCTION CLOUDY    38  30  73 SE14      29.72S
MONTROSE       MOCLDY    31  26  82 VRB6      29.78R WCI  25
EAGLE          LGT SNOW  25  25 100 CALM      29.74S
RIFLE          FLURRIES  31  29  92 SE5       29.72F WCI  26
DELTA          CLOUDY    36  29  78 E7        29.78S
NUCLA          FAIR      36  28  75 SW17G23   29.80S
$$

COZ017>023-064>068-231500-
...SOUTHWEST COLORADO...

CITY           SKY/WX    TMP DP  RH WIND       PRES   REMARKS
DURANGO        CLOUDY    24  22  91 E3        29.92F
CORTEZ         CLOUDY    33  27  78 W6        29.87F WCI  28
PAGOSA SPRINGS CLOUDY    24  23  99 CALM      29.93S
TELLURIDE      NOT AVBL
WOLF CREEK PAS CLOUDY    10  10 100 SW22G35   29.84F WCI  -9
$$

COZ009-010-012-014-032>034-037-058>063-231500-
...CENTRAL COLORADO...

CITY           SKY/WX    TMP DP  RH WIND       PRES   REMARKS
ASPEN          CLOUDY    26  23  88 SE3       29.69F
BUENA VISTA    FLURRIES  27  19  74 SE16G22   29.72F WCI  14
COPPER MTN     SNOW      23  14  68 MISG      29.68F VSB 1/2
BERTHOUD PASS  CLOUDY    14   3  62 MISG      29.64R
COTTONWOOD PAS LGT SNOW  23  21  93 S3        29.70F
GUNNISON       FLURRIES  14  12  92 S3        29.79S
KREMMLING      NOT AVBL
LEADVILLE      LGT SNOW  22  18  85 NE5       29.68S FOG     WCI  16
MONARCH PASS   CLOUDY    14  12  92 W13G32    29.80F WCI   0
SALIDA         CLOUDY    30  19  63 S15G23    29.82F WCI  19
SUNLIGHT       CLOUDY    19  18  93 SW21G44   29.69F WCI   3
WILKERSON PASS FOG      N/A N/A N/A SW14G24   29.70F VSB 1
$$

COZ069>075-231500-
...SAN LUIS VALLEY/SANGRE DE CRISTO MOUNTAINS...

CITY           SKY/WX    TMP DP  RH WIND       PRES   REMARKS
ALAMOSA        FAIR      25  18  74 SW20      29.83F WCI  11
LA VETA PASS   CLOUDY    21  18  86 NE24G47   29.75F WCI   4
SAGUACHE       NOT AVBL
$$

COZ035-036-038>040-231500-
...NORTHERN COLORADO FRONT RANGE...

CITY           SKY/WX    TMP DP  RH WIND       PRES   REMARKS
DENVER INTL AP FAIR      26  17  68 SW10      29.62F WCI  16
DMNS CITY PARK   N/A     26  17  67 E6        29.64S WCI  19
AURORA         PTCLDY    32  19  60 SW13      29.63F WCI  22
FRONT RANGE AP NOT AVBL
ERIE MUNI ARPT MOCLDY    28  22  79 CALM      29.64S
BOULDER MUN AP MOCLDY    32  19  59 CALM      29.64S
CENTENNIAL     FAIR      30  17  58 CALM      29.64F
BROOMFIELD     MOCLDY    28  19  69 CALM      29.64S
FORT COLLINS   FAIR      21  16  79 CALM      29.65F
LONGMONT       CLOUDY    30  23  75 NW6       29.65F WCI  24
$$

COZ041-046-047-076>085-087-088-231500-
...PIKES PEAK/PALMER DIVIDE AND SOUTHERN FOOTHILLS...

CITY           SKY/WX    TMP DP  RH WIND       PRES   REMARKS
COLO. SPRINGS  FAIR      31  17  56 SW13      29.69R WCI  21
A. F. ACADEMY  FAIR      31  18  59 N7        29.67F WCI  24
SCHRIEVER AFB  NOT AVBL
ELLICOTT       FAIR     N/A N/A N/A W7        29.67F
FALCON         FAIR      32  17  55 SW8       29.70F WCI  25
FORT CARSON    NOT AVBL
LIMON          FAIR      19  17  92 CALM      29.65F
MONUMENT HILL  FAIR      34  21  60 SW17G23   29.67F WCI  23
TRINIDAD       FAIR      42  24  49 W18G26    29.77S
$$

COZ042>045-048>051-090-091-231500-
...NORTHEAST COLORADO...

CITY           SKY/WX    TMP DP  RH WIND       PRES   REMARKS
GREELEY ARPT   FAIR      21  19  92 W8        29.66S WCI  11
AKRON          FAIR      28  18  66 SW9       29.60F WCI  19
BURLINGTON     FAIR      30  23  75 S9        29.69F WCI  22
WRAY           FAIR      32  27  80 S8        29.67F WCI  25
STERLING       FAIR      28  23  80 S5        29.63F WCI  23
HOLYOKE        FAIR      27  21  80 E3        29.68S
FORT MORGAN    FAIR      23  19  86 W7        29.63F WCI  14
$$

COZ086-089-092>099-231500-
...SOUTHEAST COLORADO...

CITY           SKY/WX    TMP DP  RH WIND       PRES   REMARKS
PUEBLO         FAIR      24  19  81 NW5       29.70F WCI  18
LA JUNTA       FAIR      28  20  71 NW3       29.71F
LAMAR          FAIR      28  22  78 W7        29.70F WCI  21
SPRINGFIELD      N/A     24  20  84 SW3       29.72F
$$



USA.gov is the U.S. government's official web portal to all federal, state and local government web resources and services.